EW8363 Weather Reports


Display with metric or nautical units.
time (UTC)temp
F
wind
direction
speed
MPH
gust
MPH
rain 1hr
in
rain 24hr
in
rain mn
in
humidity
%
barometer
mb
20191023110137 75 0 2.0 7.0 0.00 0.00 0.00 15 1018.3
20191023105628 76 0 5.0 7.0 0.00 0.00 0.00 15 1018.4
20191023105119 76 0 3.0 5.0 0.00 0.00 0.00 15 1018.4
20191023104607 76 0 3.0 8.0 0.00 0.00 0.00 15 1018.9
20191023104058 76 0 3.0 8.0 0.00 0.00 0.00 15 1018.3
20191023103546 75 0 5.0 6.0 0.00 0.00 0.00 15 1018.6
20191023103036 73 0 3.0 5.0 0.00 0.00 0.00 15 1018.8
20191023102529 74 0 2.0 5.0 0.00 0.00 0.00 15 1018.8
20191023102016 74 0 1.0 5.0 0.00 0.00 0.00 15 1019.0
20191023101515 74 0 1.0 7.0 0.00 0.00 0.00 15 1019.0
20191023100957 77 0 5.0 7.0 0.00 0.00 0.00 15 1019.1
20191023100446 76 0 4.0 6.0 0.00 0.00 0.00 15 1019.0
20191023095937 76 0 5.0 6.0 0.00 0.00 0.00 15 1019.1
20191023095427 76 0 4.0 5.0 0.00 0.00 0.00 15 1019.2
20191023094916 75 0 3.0 8.0 0.00 0.00 0.00 15 1019.2
20191023094406 76 0 4.0 8.0 0.00 0.00 0.00 15 1019.4
20191023093857 77 0 4.0 5.0 0.00 0.00 0.00 15 1019.4
20191023093346 74 0 3.0 3.0 0.00 0.00 0.00 15 1019.5
20191023092835 74 0 2.0 5.0 0.00 0.00 0.00 15 1019.5
20191023092325 76 0 2.0 7.0 0.00 0.00 0.00 15 1019.3
20191023091815 78 0 4.0 7.0 0.00 0.00 0.00 15 1019.6
20191023091304 76 0 3.0 7.0 0.00 0.00 0.00 15 1019.5
20191023090757 77 0 3.0 7.0 0.00 0.00 0.00 15 1019.5
20191023090243 76 0 3.0 9.0 0.00 0.00 0.00 15 1019.4
20191023085734 77 0 4.0 9.0 0.00 0.00 0.00 15 1019.6
20191023085226 77 0 5.0 7.0 0.00 0.00 0.00 15 1019.7
20191023084714 78 0 4.0 7.0 0.00 0.00 0.00 15 1019.6
20191023084205 77 45 3.0 6.0 0.00 0.00 0.00 15 1019.5
20191023083655 77 0 3.0 7.0 0.00 0.00 0.00 15 1019.7
20191023083143 78 0 4.0 7.0 0.00 0.00 0.00 15 1019.9
20191023082634 74 0 2.0 5.0 0.00 0.00 0.00 15 1019.8
20191023082124 75 0 3.0 5.0 0.00 0.00 0.00 15 1019.7
20191023081614 74 0 3.0 5.0 0.00 0.00 0.00 15 1019.9
20191023081102 74 0 2.0 5.0 0.00 0.00 0.00 15 1019.6
20191023080553 75 0 4.0 5.0 0.00 0.00 0.00 15 1020.0
20191023080044 75 0 4.0 5.0 0.00 0.00 0.00 15 1019.9
20191023075533 74 0 2.0 5.0 0.00 0.00 0.00 15 1019.8
20191023075025 75 0 2.0 5.0 0.00 0.00 0.00 15 1019.9
20191023074511 76 0 5.0 5.0 0.00 0.00 0.00 15 1019.9
20191023074002 75 0 3.0 6.0 0.00 0.00 0.00 15 1019.8
20191023073453 75 0 4.0 6.0 0.00 0.00 0.00 15 1019.9
20191023072942 76 0 3.0 6.0 0.00 0.00 0.00 15 1020.0
20191023072433 76 0 5.0 6.0 0.00 0.00 0.00 15 1019.9
20191023071922 74 0 3.0 3.0 0.00 0.00 0.00 15 1020.2
20191023071411 74 0 2.0 3.0 0.00 0.00 0.00 15 1020.2
20191023070900 73 0 2.0 3.0 0.00 0.00 0.00 15 1020.2
20191023070352 73 0 2.0 3.0 0.00 0.00 0.00 15 1020.2
20191023065842 75 0 0.0 3.0 0.00 0.00 0.00 15 1020.1
20191023065330 75 0 2.0 3.0 0.00 0.00 0.00 15 1020.1
20191023064822 75 0 1.0 5.0 0.00 0.00 0.00 15 1020.1
20191023064310 77 45 3.0 5.0 0.00 0.00 0.00 15 1020.4
20191023063800 75 315 2.0 7.0 0.00 0.00 0.00 15 1020.4
20191023063255 76 0 3.0 7.0 0.00 0.00 0.00 15 1020.4
20191023062741 75 0 5.0 6.0 0.00 0.00 0.00 15 1020.2
20191023062229 74 45 3.0 5.0 0.00 0.00 0.00 20 1020.4
20191023061721 74 0 4.0 5.0 0.00 0.00 0.00 20 1020.4
20191023061210 74 0 3.0 4.0 0.00 0.00 0.00 20 1020.6
20191023060700 73 0 1.0 3.0 0.00 0.00 0.00 20 1020.5
20191023060150 73 0 1.0 3.0 0.00 0.00 0.00 20 1020.5
20191023055639 73 0 2.0 3.0 0.00 0.00 0.00 20 1020.8
20191023055129 72 0 2.0 3.0 0.00 0.00 0.00 20 1020.6
20191023054620 72 0 1.0 3.0 0.00 0.00 0.00 20 1020.6
20191023054110 72 0 2.0 3.0 0.00 0.00 0.00 20 1020.5
20191023053559 73 0 2.0 3.0 0.00 0.00 0.00 20 1020.8
20191023053049 73 0 1.0 3.0 0.00 0.00 0.00 20 1020.8
20191023052538 74 0 1.0 2.0 0.00 0.00 0.00 15 1020.8
20191023052028 74 0 1.0 3.0 0.00 0.00 0.00 15 1020.6
20191023051520 74 0 1.0 3.0 0.00 0.00 0.00 20 1020.6
20191023051007 74 270 1.0 3.0 0.00 0.00 0.00 15 1020.6
20191023050457 74 0 1.0 3.0 0.00 0.00 0.00 15 1020.6
20191023045949 75 0 2.0 3.0 0.00 0.00 0.00 15 1020.6
20191023045437 74 0 2.0 5.0 0.00 0.00 0.00 20 1020.9
20191023044929 76 315 3.0 5.0 0.00 0.00 0.00 15 1020.6
20191023044418 73 0 1.0 3.0 0.00 0.00 0.00 20 1020.5
20191023043906 73 0 1.0 3.0 0.00 0.00 0.00 20 1021.0
20191023043357 74 0 1.0 2.0 0.00 0.00 0.00 15 1020.5
20191023042847 75 0 1.0 2.0 0.00 0.00 0.00 15 1020.9
20191023042338 76 90 1.0 3.0 0.00 0.00 0.00 15 1020.8
20191023041826 75 0 1.0 3.0 0.00 0.00 0.00 15 1020.9
20191023041318 76 0 2.0 3.0 0.00 0.00 0.00 15 1020.6
20191023040806 75 0 1.0 2.0 0.00 0.00 0.00 15 1020.6
20191023040257 76 0 1.0 3.0 0.00 0.00 0.00 15 1020.5
20191023035748 76 0 1.0 3.0 0.00 0.00 0.00 15 1020.8
20191023035236 76 0 2.0 3.0 0.00 0.00 0.00 15 1020.6
20191023034811 76 0 1.0 3.0 0.00 0.00 0.00 15 1020.6
20191023034409 76 315 2.0 3.0 0.00 0.00 0.00 15 1020.8
20191023033853 77 0 2.0 3.0 0.00 0.00 0.00 15 1020.8
20191023032646 78 90 2.0 5.0 0.00 0.00 0.00 15 1020.4
20191023032135 78 315 2.0 5.0 0.00 0.00 0.00 15 1020.6
20191023031625 78 0 3.0 5.0 0.00 0.00 0.00 15 1020.6
20191023031115 78 0 1.0 5.0 0.00 0.00 0.00 15 1020.5
20191023030605 78 0 4.0 5.0 0.00 0.00 0.00 15 1020.6
20191023030054 78 0 3.0 6.0 0.00 0.00 0.00 15 1020.3
20191023025545 78 45 2.0 6.0 0.00 0.00 0.00 15 1020.8
20191023025042 78 0 3.0 6.0 0.00 0.00 0.00 15 1020.6
20191023024524 79 0 3.0 6.0 0.00 0.00 0.00 15 1020.5
20191023024015 80 0 5.0 7.0 0.00 0.00 0.00 15 1020.9
20191023023504 79 0 3.0 7.0 0.00 0.00 0.00 15 1020.8
20191023022954 80 0 5.0 7.0 0.00 0.00 0.00 15 1020.4
20191023022444 78 0 3.0 4.0 0.00 0.00 0.00 20 1020.8
20191023021933 78 270 1.0 2.0 0.00 0.00 0.00 20 1020.5
20191023021424 78 0 1.0 3.0 0.00 0.00 0.00 20 1020.8
20191023020914 78 270 1.0 3.0 0.00 0.00 0.00 15 1020.6
20191023020402 79 45 1.0 3.0 0.00 0.00 0.00 20 1020.8
20191023015852 79 0 3.0 3.0 0.00 0.00 0.00 20 1020.8
20191023015343 78 270 0.0 3.0 0.00 0.00 0.00 20 1020.9
20191023014833 79 0 1.0 6.0 0.00 0.00 0.00 20 1020.8
20191023014322 80 0 1.0 6.0 0.00 0.00 0.00 15 1020.5
20191023013812 81 0 5.0 7.0 0.00 0.00 0.00 15 1020.5
20191023013302 81 45 4.0 7.0 0.00 0.00 0.00 15 1020.5
20191023012751 80 45 5.0 7.0 0.00 0.00 0.00 15 1020.4
20191023012244 80 0 5.0 6.0 0.00 0.00 0.00 15 1020.5
20191023011731 80 0 4.0 5.0 0.00 0.00 0.00 15 1020.6
20191023011221 80 45 3.0 3.0 0.00 0.00 0.00 15 1020.4
20191023010712 80 0 2.0 3.0 0.00 0.00 0.00 15 1020.4
20191023010201 80 0 0.0 0.0 0.00 0.00 0.00 15 1020.5
20191023005652 82 270 0.0 0.0 0.00 0.00 0.00 15 1020.4
20191023005142 83 270 0.0 0.0 0.00 0.00 0.00 15 1020.5
20191023004631 85 270 0.0 0.0 0.00 0.00 0.00 15 1020.8
20191023004120 86 270 0.0 2.0 0.00 0.00 0.00 19 1020.4
20191023003611 87 225 0.0 3.0 0.00 0.00 0.00 19 1020.5
20191023003102 87 225 1.0 5.0 0.00 0.00 0.00 19 1020.6
20191023002550 86 270 2.0 5.0 0.00 0.00 0.00 19 1020.6
20191023002041 85 270 5.0 5.0 0.00 0.00 0.00 15 1021.0
20191023001529 86 180 1.0 5.0 0.00 0.00 0.00 15 1020.9
20191023001019 85 180 5.0 5.0 0.00 0.00 0.00 15 1021.1
20191023000512 86 180 5.0 5.0 0.00 0.00 0.00 15 1021.1
20191022235959 86 180 5.0 5.0 0.00 0.00 0.00 15 1021.0
20191022235449 87 180 4.0 5.0 0.00 0.00 0.00 15 1021.1
20191022234940 87 180 3.0 5.0 0.00 0.00 0.00 15 1020.9
20191022234429 88 180 2.0 5.0 0.00 0.00 0.00 15 1021.0
20191022233920 88 180 3.0 5.0 0.00 0.00 0.00 15 1021.0
20191022233410 87 180 4.0 5.0 0.00 0.00 0.00 15 1021.1
20191022232858 89 180 5.0 5.0 0.00 0.00 0.00 15 1021.2
20191022232348 88 180 5.0 7.0 0.00 0.00 0.00 15 1021.1
20191022231839 88 135 5.0 7.0 0.00 0.00 0.00 15 1021.2
20191022231329 87 180 5.0 7.0 0.00 0.00 0.00 15 1021.3
20191022230823 88 180 3.0 7.0 0.00 0.00 0.00 15 1021.2
20191022230309 89 180 4.0 9.0 0.00 0.00 0.00 15 1021.3
20191022225757 87 180 6.0 9.0 0.00 0.00 0.00 15 1021.3
20191022225247 90 135 1.0 10.0 0.00 0.00 0.00 15 1021.3
20191022224740 89 180 5.0 10.0 0.00 0.00 0.00 15 1021.4
20191022224227 89 225 5.0 10.0 0.00 0.00 0.00 15 1021.5
20191022223717 90 180 7.0 9.0 0.00 0.00 0.00 15 1021.3
20191022223208 89 180 8.0 11.0 0.00 0.00 0.00 15 1021.2
20191022222657 90 225 5.0 12.0 0.00 0.00 0.00 15 1021.5
20191022222148 89 180 8.0 12.0 0.00 0.00 0.00 15 1021.3
20191022221638 90 135 5.0 7.0 0.00 0.00 0.00 15 1021.2
20191022221126 92 270 4.0 6.0 0.00 0.00 0.00 15 1021.3
20191022220616 91 90 5.0 8.0 0.00 0.00 0.00 19 1021.3
20191022220107 91 90 5.0 8.0 0.00 0.00 0.00 19 1021.5
20191022215557 91 90 4.0 8.0 0.00 0.00 0.00 19 1021.5
20191022215046 92 135 5.0 9.0 0.00 0.00 0.00 19 1021.2
20191022214536 91 180 3.0 9.0 0.00 0.00 0.00 19 1021.6
20191022214025 92 180 8.0 9.0 0.00 0.00 0.00 15 1021.5
20191022213515 91 270 2.0 7.0 0.00 0.00 0.00 19 1021.5
20191022213007 91 225 6.0 7.0 0.00 0.00 0.00 19 1021.5
20191022212455 92 180 3.0 8.0 0.00 0.00 0.00 15 1021.5
20191022211945 92 225 4.0 10.0 0.00 0.00 0.00 19 1021.7
20191022211436 91 180 7.0 10.0 0.00 0.00 0.00 15 1021.5
20191022210924 91 270 3.0 8.0 0.00 0.00 0.00 15 1021.8
20191022210415 91 135 3.0 9.0 0.00 0.00 0.00 15 1022.0
20191022205905 89 270 5.0 9.0 0.00 0.00 0.00 15 1021.8
20191022205354 89 135 6.0 9.0 0.00 0.00 0.00 15 1021.8
20191022204843 90 180 5.0 9.0 0.00 0.00 0.00 15 1022.1
20191022204335 92 180 5.0 6.0 0.00 0.00 0.00 15 1022.2
20191022203824 92 180 2.0 8.0 0.00 0.00 0.00 15 1022.3
20191022203313 89 225 7.0 8.0 0.00 0.00 0.00 15 1022.3
20191022202804 90 270 5.0 8.0 0.00 0.00 0.00 15 1022.5
20191022202253 90 90 3.0 9.0 0.00 0.00 0.00 15 1022.4
20191022201742 88 180 7.0 9.0 0.00 0.00 0.00 15 1022.4
20191022201235 90 135 5.0 5.0 0.00 0.00 0.00 15 1022.7
20191022200723 90 180 3.0 7.0 0.00 0.00 0.00 15 1022.6
20191022200212 90 270 3.0 7.0 0.00 0.00 0.00 15 1022.9
20191022195703 89 180 6.0 7.0 0.00 0.00 0.00 15 1022.9
20191022195152 89 180 3.0 8.0 0.00 0.00 0.00 15 1023.0
20191022194643 88 225 5.0 8.0 0.00 0.00 0.00 15 1023.2
20191022194133 88 180 6.0 8.0 0.00 0.00 0.00 15 1023.4
20191022193622 90 90 1.0 7.0 0.00 0.00 0.00 15 1023.4
20191022193112 89 180 3.0 7.0 0.00 0.00 0.00 15 1023.7
20191022192609 89 90 6.0 7.0 0.00 0.00 0.00 15 1023.6
20191022192053 88 180 3.0 7.0 0.00 0.00 0.00 15 1023.5
20191022191541 89 135 4.0 7.0 0.00 0.00 0.00 14 1023.7
20191022191032 86 90 4.0 6.0 0.00 0.00 0.00 15 1023.7
20191022190521 90 90 2.0 7.0 0.00 0.00 0.00 14 1023.9
20191022190010 88 225 3.0 8.0 0.00 0.00 0.00 14 1023.8
20191022185503 86 90 5.0 8.0 0.00 0.00 0.00 14 1024.1
20191022184950 87 135 3.0 7.0 0.00 0.00 0.00 14 1024.1
20191022184440 86 180 5.0 8.0 0.00 0.00 0.00 14 1024.1
20191022183931 87 180 3.0 8.0 0.00 0.00 0.00 14 1024.0
20191022183420 88 90 3.0 7.0 0.00 0.00 0.00 15 1024.3
20191022182911 87 180 2.0 7.0 0.00 0.00 0.00 15 1024.3
20191022182401 86 180 4.0 6.0 0.00 0.00 0.00 15 1024.3
20191022181849 88 135 2.0 6.0 0.00 0.00 0.00 15 1024.3
20191022181339 88 135 5.0 6.0 0.00 0.00 0.00 15 1024.3
20191022180830 89 180 3.0 6.0 0.00 0.00 0.00 14 1024.2
20191022180320 86 180 4.0 7.0 0.00 0.00 0.00 15 1024.4
20191022175809 86 270 3.0 7.0 0.00 0.00 0.00 15 1024.3
20191022175300 86 225 5.0 7.0 0.00 0.00 0.00 15 1024.5
20191022174749 87 135 2.0 6.0 0.00 0.00 0.00 14 1024.4
20191022174238 85 180 5.0 6.0 0.00 0.00 0.00 15 1024.4
20191022173731 86 90 4.0 5.0 0.00 0.00 0.00 15 1024.4
20191022173218 87 180 3.0 6.0 0.00 0.00 0.00 14 1024.3
20191022172708 85 180 3.0 6.0 0.00 0.00 0.00 14 1024.2
20191022172158 86 180 3.0 6.0 0.00 0.00 0.00 15 1024.5
20191022171648 86 180 4.0 5.0 0.00 0.00 0.00 15 1024.3
20191022171138 88 180 3.0 4.0 0.00 0.00 0.00 15 1024.5
20191022170628 86 270 2.0 4.0 0.00 0.00 0.00 15 1024.5
20191022170118 86 180 3.0 5.0 0.00 0.00 0.00 15 1024.5
20191022165607 84 225 3.0 5.0 0.00 0.00 0.00 15 1024.5
20191022165058 84 180 4.0 5.0 0.00 0.00 0.00 15 1024.6
20191022164548 86 225 3.0 5.0 0.00 0.00 0.00 15 1024.5
20191022164037 85 180 2.0 4.0 0.00 0.00 0.00 15 1024.5
20191022163528 87 270 1.0 3.0 0.00 0.00 0.00 15 1024.4
20191022163016 86 270 2.0 3.0 0.00 0.00 0.00 15 1024.4
20191022162506 86 225 1.0 3.0 0.00 0.00 0.00 15 1024.5
20191022161958 86 180 2.0 3.0 0.00 0.00 0.00 15 1024.2
20191022161446 85 0 1.0 4.0 0.00 0.00 0.00 15 1024.5
20191022160936 83 0 2.0 4.0 0.00 0.00 0.00 15 1024.4
20191022160427 83 0 1.0 3.0 0.00 0.00 0.00 15 1024.4
20191022155916 83 0 2.0 4.0 0.00 0.00 0.00 15 1024.3
20191022155407 83 0 1.0 4.0 0.00 0.00 0.00 15 1024.3
20191022154856 83 45 2.0 5.0 0.00 0.00 0.00 15 1024.5
20191022154355 82 45 2.0 7.0 0.00 0.00 0.00 15 1024.1
20191022153835 80 0 2.0 7.0 0.00 0.00 0.00 15 1024.2
20191022153326 80 45 2.0 7.0 0.00 0.00 0.00 15 1024.2
20191022152816 79 0 6.0 7.0 0.00 0.00 0.00 15 1024.0
20191022152304 79 0 4.0 6.0 0.00 0.00 0.00 15 1023.9
20191022151755 79 0 3.0 6.0 0.00 0.00 0.00 15 1023.8
20191022151244 79 0 4.0 6.0 0.00 0.00 0.00 15 1023.9
20191022150734 78 0 3.0 5.0 0.00 0.00 0.00 15 1024.0
20191022150226 77 0 3.0 5.0 0.00 0.00 0.00 20 1023.9
20191022145713 76 0 4.0 6.0 0.00 0.00 0.00 20 1023.8
20191022145203 76 0 3.0 6.0 0.00 0.00 0.00 20 1024.0
20191022144655 75 0 4.0 6.0 0.00 0.00 0.00 20 1024.0
20191022144144 74 0 3.0 7.0 0.00 0.00 0.00 20 1023.8
20191022143635 75 45 4.0 7.0 0.00 0.00 0.00 20 1023.8
20191022143124 75 45 5.0 7.0 0.00 0.00 0.00 20 1023.6
20191022142612 74 45 2.0 5.0 0.00 0.00 0.00 20 1023.8
20191022142103 74 0 2.0 4.0 0.00 0.00 0.00 20 1023.5
20191022141553 73 0 2.0 5.0 0.00 0.00 0.00 20 1023.6
20191022141043 74 0 2.0 5.0 0.00 0.00 0.00 20 1023.7
20191022140532 73 315 2.0 3.0 0.00 0.00 0.00 20 1023.5
20191022140031 73 315 2.0 5.0 0.00 0.00 0.00 20 1023.6
20191022135512 74 0 3.0 5.0 0.00 0.00 0.00 20 1023.5
20191022135001 74 0 3.0 5.0 0.00 0.00 0.00 20 1023.6
20191022134454 75 0 3.0 5.0 0.00 0.00 0.00 20 1023.7
20191022133942 75 45 3.0 5.0 0.00 0.00 0.00 20 1023.6
20191022133432 76 45 4.0 9.0 0.00 0.00 0.00 15 1023.8
20191022132922 76 0 5.0 9.0 0.00 0.00 0.00 15 1023.6
20191022132411 76 0 6.0 8.0 0.00 0.00 0.00 15 1023.6
20191022131902 76 45 4.0 10.0 0.00 0.00 0.00 20 1023.7
20191022130840 76 0 8.0 10.0 0.00 0.00 0.00 15 1023.5
20191022130330 76 45 4.0 9.0 0.00 0.00 0.00 20 1023.6
20191022125821 76 0 5.0 9.0 0.00 0.00 0.00 20 1023.5
20191022125311 76 0 4.0 8.0 0.00 0.00 0.00 20 1023.4
20191022124800 76 90 7.0 8.0 0.00 0.00 0.00 20 1023.6
20191022124251 76 0 5.0 7.0 0.00 0.00 0.00 20 1023.4
20191022123740 75 0 2.0 7.0 0.00 0.00 0.00 20 1023.5
20191022123229 76 0 4.0 9.0 0.00 0.00 0.00 20 1023.3
20191022122722 76 0 3.0 9.0 0.00 0.00 0.00 20 1023.4
20191022122210 76 0 7.0 8.0 0.00 0.00 0.00 20 1023.5
20191022121659 76 0 6.0 8.0 0.00 0.00 0.00 20 1023.3
20191022121150 76 0 4.0 7.0 0.00 0.00 0.00 20 1023.2
20191022120639 77 0 5.0 7.0 0.00 0.00 0.00 20 1023.3
20191022120134 77 0 5.0 7.0 0.00 0.00 0.00 20 1023.2
20191022115620 76 0 4.0 5.0 0.00 0.00 0.00 20 1023.1
20191022115108 75 45 3.0 7.0 0.00 0.00 0.00 20 1023.2
20191022114558 77 45 4.0 7.0 0.00 0.00 0.00 15 1023.3
20191022114050 77 0 5.0 7.0 0.00 0.00 0.00 15 1023.1
20191022113540 77 0 5.0 8.0 0.00 0.00 0.00 20 1023.1
20191022113028 76 0 3.0 8.0 0.00 0.00 0.00 20 1023.4
20191022112519 76 0 4.0 8.0 0.00 0.00 0.00 20 1023.1
20191022112008 77 0 6.0 8.0 0.00 0.00 0.00 15 1023.1
20191022111458 77 0 5.0 9.0 0.00 0.00 0.00 20 1023.2
20191022110950 77 0 6.0 9.0 0.00 0.00 0.00 15 1023.1
20191022110437 77 0 7.0 9.0 0.00 0.00 0.00 15 1023.1